Wind_Speed
6 6 6 7 7 7 7 8 7 6 5 4 4 3 4 4 4 3 2 2 2 2 1 2 1 0 1 2 2 3 4 4 4 3 4 4 4 4 5 5 5 5 4 4 4 4 4 4 3
7 7 7 7 7 7 7 7 7 6 6 5 4 4 4 5 5 4 3 2 2 2 2 2 2 1 1 1 2 2 3 3 3 3 4 4 4 4 5 5 5 5 4 4 5 5 4 4 3
8 8 8 7 7 7 7 8 7 6 6 6 5 4 4 4 5 4 4 3 2 2 3 3 2 1 1 1 1 1 2 2 2 3 3 4 3 4 5 5 4 4 4 4 5 5 4 3 4
8 9 8 8 8 7 7 8 7 6 6 6 6 5 5 4 4 4 4 4 3 4 4 4 3 2 2 1 0 1 2 2 2 3 3 3 4 4 5 5 4 4 4 4 5 4 3 3 4
9 9 9 9 8 8 7 7 7 7 6 6 6 6 6 5 5 5 4 4 4 4 4 3 2 2 2 1 0 0 1 2 3 2 3 3 4 4 4 4 4 4 4 5 5 4 3 3 3
8 9 9 9 8 7 8 9 8 7 7 6 7 6 6 5 5 5 4 4 4 4 4 3 2 2 2 1 1 1 1 2 2 2 2 2 3 4 3 3 3 4 4 5 4 4 4 3 3
8 8 8 8 8 7 8 9 9 8 8 7 7 7 6 6 6 6 5 4 4 5 4 4 4 3 3 3 3 2 2 2 2 2 1 2 3 3 3 3 3 3 3 4 4 4 4 3 4
8 8 8 8 8 7 8 9 8 8 8 7 7 7 7 6 6 6 5 5 4 5 5 5 4 4 3 3 3 3 2 2 2 2 1 2 2 3 3 3 3 3 4 4 4 4 4 3 3
8 8 8 9 8 8 8 9 8 8 8 8 7 7 7 6 6 6 6 6 5 5 5 5 5 4 4 3 3 3 3 3 2 2 2 2 2 2 2 3 3 3 4 4 4 4 4 4 3
8 8 9 9 10 9 9 9 8 8 8 8 8 7 8 7 6 7 6 6 5 5 5 6 5 5 4 4 4 4 4 3 3 3 2 3 3 3 3 2 3 3 4 4 4 4 4 4 4
8 8 8 9 9 9 9 9 8 8 8 8 8 8 8 7 7 7 7 7 6 6 6 6 5 5 5 5 5 5 4 4 3 3 3 3 3 3 3 3 3 3 3 3 4 4 4 4 4
8 9 9 9 9 8 9 8 8 8 8 8 8 8 7 7 7 7 8 7 7 7 6 6 6 6 5 5 5 5 5 4 4 3 3 3 3 4 3 3 3 3 3 3 3 4 4 4 4
8 9 9 9 9 8 8 9 8 8 8 8 8 8 8 8 8 8 8 8 8 8 8 7 6 6 5 5 5 5 5 5 4 4 3 3 3 3 3 2 3 3 3 2 3 3 3 4 4
9 9 9 9 9 8 8 8 7 7 8 8 8 8 8 8 8 8 8 8 8 9 8 8 6 6 5 5 5 5 5 5 5 4 3 3 3 3 3 2 3 3 2 2 3 3 3 4 4
9 10 10 10 10 9 9 8 8 8 8 8 9 9 9 8 8 8 8 8 9 9 9 8 7 7 6 5 5 5 5 5 5 4 4 3 3 3 3 3 3 3 3 3 3 4 4 4 4
9 9 9 10 10 10 9 8 9 9 9 9 9 9 9 9 9 8 8 8 9 9 8 8 7 6 6 5 5 5 5 4 4 4 3 3 3 3 3 3 3 3 3 3 3 4 4 4 4
10 9 8 9 10 10 10 10 10 10 9 9 9 9 9 9 9 9 8 8 8 8 8 8 7 6 6 5 5 5 5 4 4 4 3 3 3 3 3 3 3 3 3 3 3 3 3 3 3
10 10 9 9 9 10 10 10 10 9 9 9 9 10 10 9 9 9 9 9 9 9 8 8 7 7 6 6 6 6 6 5 4 4 3 3 3 3 3 3 3 3 3 3 3 3 3 3 3
10 10 10 10 10 10 10 10 11 10 10 10 10 10 10 10 10 10 10 9 9 9 8 8 7 7 6 6 6 6 6 6 5 4 4 4 3 3 3 3 3 3 3 3 3 3 3 3 3
11 10 11 11 11 11 10 10 11 11 10 10 11 11 11 11 11 11 10 10 10 9 9 8 8 7 7 6 6 7 7 7 6 5 5 5 4 4 4 4 4 4 4 3 4 4 3 3 3
10 10 10 10 10 11 10 10 11 11 11 11 11 11 11 11 11 11 11 11 11 10 10 9 9 9 8 8 7 7 7 7 7 6 6 5 5 4 4 5 5 5 4 4 4 4 4 4 4
10 10 10 10 10 10 10 10 10 11 11 11 11 11 12 12 12 11 11 11 11 11 10 10 10 10 9 9 8 8 8 7 7 7 6 6 5 5 5 5 5 5 5 5 5 4 4 4 5
10 10 11 10 11 11 11 11 11 11 11 11 11 12 12 13 13 13 12 12 12 12 11 10 10 10 10 9 9 9 9 8 7 7 7 7 6 6 5 6 6 6 6 6 6 5 5 5 5
11 11 11 11 10 10 10 11 11 12 12 11 11 12 13 14 14 13 13 13 13 13 12 12 11 11 11 10 9 9 9 9 8 8 7 7 7 7 6 6 6 6 6 6 6 6 6 6 5
12 12 12 12 11 10 9 10 10 11 11 11 11 11 12 13 14 14 14 14 14 14 13 13 12 12 11 10 10 10 10 10 9 9 9 8 8 8 7 7 7 7 7 6 6 7 6 6 6
11 12 13 12 12 11 11 10 10 10 10 11 12 12 12 13 13 14 15 14 14 14 14 14 13 13 12 12 11 11 11 10 10 10 9 9 10 9 9 8 8 8 7 7 8 7 7 7 7
12 12 13 14 13 13 12 11 11 11 11 11 12 13 13 13 14 14 15 15 15 14 14 14 14 14 13 13 12 12 12 11 11 11 10 10 10 10 10 10 9 9 8 8 8 8 8 8 8
14 13 14 14 14 13 13 12 11 11 11 11 11 13 13 13 13 13 14 15 15 15 15 15 14 14 14 13 13 13 13 12 12 12 11 11 11 11 11 11 10 10 10 10 9 9 9 9 9
15 15 14 15 15 15 14 12 12 12 12 11 11 12 13 13 14 14 15 15 15 16 16 16 15 14 14 14 14 14 14 13 13 13 12 12 12 12 12 11 11 11 11 11 11 11 10 10 10
15 14 15 15 14 15 15 13 13 12 12 12 12 12 13 14 14 14 15 15 16 16 16 16 15 15 15 14 14 14 14 14 13 13 13 12 12 12 12 12 12 12 12 12 12 12 12 12 12
Wind_Direction
222 220 219 220 217 215 220 223 223 222 226 220 213 214 202 186 182 188 181 164 145 150 176 192 177 357 355 14 25 33 34 24 15 20 17 8 356 342 336 324 325 324 324 324 318 304 298 301 302
230 226 227 227 226 217 220 222 220 222 224 220 209 206 202 197 188 186 189 187 184 188 203 205 207 261 333 9 37 36 31 23 11 10 15 9 6 351 338 326 326 326 327 322 316 305 295 292 294
233 230 232 233 232 224 224 223 223 218 213 220 219 213 209 195 187 193 197 197 203 210 219 218 218 239 322 325 25 38 16 14 12 3 359 354 349 341 337 331 328 328 334 332 330 315 299 293 292
235 233 234 238 236 229 227 217 214 211 203 213 213 208 200 189 190 201 208 215 216 219 225 232 239 245 266 261 230 23 17 12 8 3 359 355 346 343 340 333 332 332 340 338 340 335 313 300 293
234 233 235 235 235 230 220 212 215 212 208 214 216 205 192 192 202 211 218 222 218 218 229 237 243 244 251 226 204 5 7 357 352 347 348 348 347 345 342 342 345 345 343 336 336 342 331 309 301
236 234 235 231 230 228 221 217 220 218 219 220 219 215 201 204 205 209 212 220 226 218 226 223 221 236 237 230 221 260 306 336 336 341 341 344 343 347 345 347 347 347 348 341 337 337 331 321 304
234 231 230 228 228 225 220 220 225 226 228 224 218 216 205 206 208 209 209 218 227 215 219 224 224 231 223 227 239 253 263 299 338 328 348 342 330 333 337 339 346 349 346 340 339 334 327 319 309
233 230 226 225 226 227 222 220 224 224 226 222 213 212 203 206 210 213 216 220 223 218 222 223 226 223 228 235 242 241 247 280 321 328 325 346 342 332 330 335 340 343 339 334 334 333 331 323 321
232 228 224 222 222 220 219 222 218 222 224 222 213 210 208 209 215 220 219 219 220 219 223 221 220 217 227 234 236 238 244 267 285 304 325 337 333 320 319 330 339 344 340 336 335 337 337 329 324
229 226 225 223 222 224 228 227 224 219 217 217 217 210 212 211 214 220 221 220 218 219 223 224 219 221 222 223 230 237 248 263 268 278 295 311 316 310 311 322 329 339 342 342 342 344 341 332 324
231 227 226 220 221 227 229 228 226 215 212 217 219 220 217 214 215 218 219 220 221 223 224 219 220 219 220 230 236 235 247 255 258 269 281 290 294 298 304 318 332 336 338 335 336 343 342 335 329
234 230 229 222 223 228 222 222 223 213 211 217 224 229 230 219 215 219 219 221 223 225 228 229 228 225 224 237 240 240 248 248 248 258 267 279 288 294 297 306 320 331 341 340 335 339 343 341 339
233 233 230 229 227 225 219 222 221 217 215 219 227 227 228 223 219 221 223 227 230 231 230 229 228 225 225 236 245 248 248 249 249 255 262 276 282 284 286 295 311 324 333 334 343 344 348 348 348
232 231 227 225 228 228 220 219 221 224 222 228 233 229 230 231 228 228 232 234 233 229 224 224 221 219 223 234 244 248 245 243 241 249 258 268 280 285 289 285 289 303 319 331 342 346 342 345 343
231 230 230 228 229 230 227 225 228 229 229 230 234 232 231 231 230 229 232 231 227 222 222 220 219 220 226 234 240 242 237 236 243 247 255 269 284 287 286 288 288 300 310 319 329 340 344 342 341
231 228 229 228 228 231 231 235 233 232 231 229 231 233 234 231 229 229 230 228 223 221 221 223 222 220 224 231 236 233 226 229 240 246 259 268 275 275 274 282 291 304 314 320 325 330 329 334 339
233 231 229 229 230 232 235 237 234 234 230 229 231 233 234 232 229 227 226 226 220 220 224 226 225 219 218 225 227 228 222 228 237 244 252 258 264 266 271 283 297 311 321 326 331 333 333 335 336
236 237 237 236 234 237 237 236 238 237 234 232 231 232 232 230 228 222 222 224 220 221 221 224 222 218 223 227 224 224 229 232 235 243 250 255 261 266 274 285 297 307 311 317 325 332 335 339 343
233 236 239 239 237 238 239 237 238 241 238 232 232 233 230 228 224 220 220 221 220 220 222 223 224 224 230 231 228 230 233 232 233 238 249 252 258 269 276 288 294 298 301 310 316 321 324 328 335
233 235 238 242 241 241 241 238 238 239 237 236 235 234 232 229 226 225 224 224 222 221 223 227 227 229 231 233 235 233 232 235 235 237 245 249 259 267 277 284 288 291 294 300 303 306 311 312 317
231 232 235 240 241 241 241 239 238 238 237 236 237 238 233 229 226 224 225 226 224 225 227 228 229 229 230 232 234 235 235 239 238 239 243 250 262 271 279 283 282 280 284 291 297 297 302 305 308
233 233 236 238 239 241 243 238 236 238 240 240 239 239 234 230 228 227 226 226 222 225 226 227 229 230 230 232 234 238 243 243 243 245 246 253 259 266 276 280 279 278 281 287 292 292 292 294 302
235 237 239 241 243 243 245 242 235 239 241 243 241 235 231 230 229 229 226 227 226 227 228 229 230 230 231 235 239 241 243 244 246 249 253 254 254 260 269 277 279 279 281 284 288 291 291 291 295
236 238 240 243 247 248 246 244 239 239 242 241 238 233 232 231 230 228 228 230 230 230 230 230 230 231 234 236 240 243 243 245 248 250 254 257 254 260 268 272 277 275 275 278 284 288 296 296 298
237 238 239 243 247 251 248 247 244 241 242 242 239 233 230 231 230 230 231 233 232 229 230 231 233 235 237 238 241 243 245 247 249 254 256 257 257 261 267 271 273 274 274 275 281 286 290 297 303
241 242 246 251 254 254 251 250 249 246 246 249 245 240 234 232 232 235 234 233 230 229 230 231 235 238 240 240 242 244 245 248 252 254 256 258 260 261 262 266 267 270 275 278 281 282 283 288 294
243 245 250 254 256 256 253 251 250 256 253 251 247 243 241 240 239 240 238 234 233 231 231 232 236 239 241 241 242 244 247 249 251 252 256 260 262 261 260 261 263 267 271 277 281 282 284 288 292
245 249 252 254 257 258 256 255 254 255 253 251 249 246 242 240 241 242 241 240 238 234 234 234 236 240 241 242 243 247 249 251 251 252 255 258 261 260 258 259 263 265 269 275 281 284 282 284 287
244 248 252 257 260 259 261 259 257 255 250 249 248 247 246 245 244 244 242 241 238 236 236 236 238 241 242 243 243 246 248 250 251 252 253 257 260 262 261 260 264 267 269 272 277 280 281 283 287
246 250 253 258 260 262 265 263 258 255 251 246 247 248 249 245 243 244 244 243 239 237 238 237 238 242 244 243 243 245 247 248 250 251 254 257 261 263 263 264 267 269 271 273 276 278 281 281 286
Height
5866 5867 5868 5870 5871 5872 5872 5874 5874 5875 5876 5877 5877 5878 5879 5880 5882 5885 5883 5882 5883 5883 5884 5884 5884 5884 5884 5884 5884 5884 5884 5884 5883 5883 5883 5883 5882 5882 5882 5882 5882 5882 5881 5881 5881 5881 5881 5881 5882
5865 5866 5868 5870 5870 5871 5872 5873 5874 5875 5876 5876 5877 5878 5878 5879 5881 5882 5882 5882 5883 5883 5884 5884 5884 5884 5884 5884 5884 5884 5884 5884 5884 5883 5883 5883 5883 5883 5882 5882 5881 5881 5881 5881 5880 5880 5881 5881 5881
5864 5866 5868 5869 5869 5870 5871 5872 5873 5874 5875 5876 5877 5878 5878 5879 5880 5881 5882 5882 5882 5883 5883 5884 5884 5884 5884 5884 5884 5884 5884 5884 5884 5883 5883 5883 5883 5882 5882 5882 5881 5881 5880 5880 5880 5880 5880 5880 5880
5863 5865 5867 5868 5868 5869 5870 5871 5872 5873 5874 5875 5876 5877 5878 5879 5880 5881 5881 5882 5882 5883 5883 5883 5883 5884 5884 5884 5884 5884 5884 5884 5884 5884 5883 5883 5883 5882 5882 5882 5881 5880 5880 5879 5879 5879 5879 5879 5879
5862 5864 5865 5866 5867 5868 5869 5870 5871 5872 5873 5874 5876 5876 5877 5878 5879 5880 5881 5881 5882 5882 5883 5883 5883 5883 5883 5883 5884 5884 5884 5884 5884 5884 5883 5883 5883 5883 5882 5881 5881 5880 5880 5879 5879 5878 5878 5878 5878
5861 5863 5864 5865 5866 5867 5868 5869 5870 5871 5872 5873 5875 5876 5877 5877 5878 5880 5880 5881 5881 5882 5882 5883 5883 5883 5883 5883 5883 5884 5884 5884 5884 5884 5883 5883 5883 5882 5882 5881 5881 5880 5879 5879 5879 5878 5878 5878 5878
5860 5861 5862 5864 5865 5866 5867 5868 5869 5870 5871 5872 5874 5875 5875 5877 5878 5879 5879 5880 5880 5881 5881 5882 5882 5883 5883 5883 5883 5883 5884 5884 5883 5883 5883 5883 5882 5882 5882 5881 5881 5880 5879 5879 5878 5878 5877 5877 5877
5858 5861 5861 5863 5864 5865 5866 5866 5868 5869 5870 5871 5872 5874 5875 5876 5877 5878 5879 5879 5880 5880 5880 5881 5881 5882 5882 5882 5883 5883 5883 5883 5883 5883 5882 5882 5882 5882 5881 5881 5880 5880 5879 5878 5878 5877 5877 5877 5876
5857 5860 5860 5861 5863 5864 5865 5865 5867 5868 5869 5870 5871 5873 5874 5875 5876 5877 5877 5878 5879 5879 5880 5880 5881 5881 5881 5882 5882 5882 5882 5883 5883 5883 5882 5882 5881 5881 5881 5881 5880 5880 5879 5878 5878 5877 5877 5876 5876
5856 5858 5859 5860 5862 5863 5863 5864 5865 5867 5868 5869 5870 5871 5872 5873 5875 5875 5876 5877 5878 5878 5879 5879 5880 5880 5880 5881 5881 5881 5882 5882 5882 5882 5882 5881 5881 5881 5881 5880 5880 5879 5879 5878 5877 5877 5876 5876 5875
5855 5856 5857 5859 5860 5861 5862 5863 5864 5866 5867 5868 5869 5870 5871 5872 5873 5874 5875 5876 5876 5877 5877 5878 5879 5879 5880 5880 5880 5881 5881 5881 5881 5881 5881 5881 5881 5881 5880 5880 5880 5879 5879 5878 5877 5877 5876 5875 5875
5854 5855 5856 5857 5859 5860 5861 5862 5863 5865 5866 5867 5868 5869 5870 5871 5872 5873 5874 5875 5875 5876 5876 5877 5878 5878 5879 5879 5879 5880 5880 5880 5881 5881 5881 5880 5880 5880 5880 5880 5879 5879 5878 5878 5877 5876 5876 5875 5874
5853 5854 5855 5856 5858 5859 5860 5861 5862 5863 5864 5865 5866 5867 5868 5869 5871 5871 5872 5873 5874 5874 5875 5876 5876 5877 5878 5878 5879 5879 5879 5879 5880 5880 5880 5880 5880 5880 5879 5879 5879 5878 5878 5877 5877 5876 5875 5875 5874
5852 5853 5854 5855 5856 5857 5859 5860 5861 5862 5863 5864 5865 5866 5867 5868 5869 5870 5871 5871 5872 5873 5874 5874 5875 5876 5877 5878 5878 5878 5878 5879 5879 5879 5879 5879 5879 5879 5879 5879 5878 5878 5877 5877 5876 5876 5875 5874 5874
5851 5852 5853 5854 5855 5857 5858 5859 5860 5861 5862 5863 5863 5864 5865 5866 5867 5868 5869 5870 5870 5871 5872 5873 5874 5875 5876 5877 5877 5877 5877 5878 5878 5878 5879 5879 5879 5878 5878 5878 5878 5877 5877 5876 5876 5875 5875 5874 5873
5850 5851 5852 5853 5854 5855 5858 5858 5859 5860 5860 5861 5862 5863 5864 5865 5865 5866 5867 5868 5869 5870 5871 5872 5873 5874 5875 5876 5876 5876 5877 5877 5878 5878 5878 5878 5878 5878 5878 5878 5877 5877 5877 5876 5876 5875 5875 5874 5873
5849 5850 5851 5852 5853 5854 5856 5856 5857 5858 5859 5859 5860 5861 5862 5863 5864 5865 5866 5867 5868 5869 5870 5871 5872 5873 5874 5875 5875 5876 5876 5877 5877 5877 5878 5878 5877 5877 5877 5877 5877 5877 5876 5876 5875 5875 5874 5874 5873
5847 5849 5850 5851 5852 5853 5853 5854 5855 5856 5857 5858 5859 5860 5861 5861 5862 5863 5864 5866 5867 5868 5869 5870 5871 5872 5873 5874 5874 5875 5875 5876 5876 5877 5877 5877 5877 5877 5877 5876 5876 5876 5876 5875 5875 5874 5874 5873 5872
5846 5847 5848 5849 5850 5851 5852 5853 5853 5854 5855 5856 5857 5858 5859 5860 5861 5862 5863 5864 5866 5867 5868 5869 5870 5871 5872 5872 5873 5874 5874 5875 5875 5876 5876 5876 5876 5876 5876 5875 5875 5875 5875 5875 5874 5874 5873 5872 5872
5844 5846 5847 5848 5848 5849 5850 5851 5852 5852 5853 5855 5855 5856 5857 5858 5859 5860 5861 5863 5864 5865 5866 5867 5868 5869 5870 5871 5872 5873 5873 5874 5874 5875 5875 5875 5875 5875 5875 5875 5874 5874 5874 5874 5873 5873 5872 5872 5871
5842 5844 5845 5846 5847 5847 5849 5850 5850 5851 5852 5853 5854 5854 5855 5856 5857 5858 5859 5861 5862 5864 5865 5866 5867 5868 5869 5870 5871 5871 5872 5872 5873 5873 5874 5874 5874 5874 5874 5874 5873 5873 5873 5873 5872 5872 5871 5871 5870
5841 5842 5843 5844 5845 5846 5847 5848 5849 5849 5850 5851 5852 5853 5854 5855 5856 5857 5858 5859 5860 5862 5863 5864 5865 5866 5867 5868 5869 5870 5871 5871 5871 5872 5872 5872 5872 5873 5873 5872 5872 5872 5872 5871 5871 5870 5870 5870 5869
5840 5840 5841 5842 5843 5844 5845 5846 5848 5847 5848 5849 5850 5851 5852 5853 5854 5855 5856 5857 5858 5860 5861 5862 5863 5864 5865 5866 5867 5868 5869 5869 5870 5870 5871 5871 5871 5871 5871 5871 5871 5871 5870 5870 5869 5869 5869 5868 5868
5838 5839 5839 5840 5841 5843 5843 5844 5845 5846 5846 5847 5848 5848 5849 5851 5852 5853 5854 5855 5856 5858 5859 5860 5861 5862 5863 5864 5865 5866 5867 5868 5868 5869 5869 5869 5870 5870 5870 5870 5869 5869 5869 5869 5868 5868 5868 5867 5867
5836 5838 5838 5838 5839 5841 5841 5842 5844 5844 5844 5845 5845 5846 5847 5848 5849 5850 5852 5853 5854 5855 5856 5858 5859 5860 5861 5862 5863 5864 5865 5866 5866 5867 5867 5868 5868 5868 5868 5868 5868 5868 5867 5867 5867 5867 5866 5866 5865
5834 5836 5837 5838 5838 5839 5839 5840 5842 5842 5842 5842 5843 5844 5845 5846 5847 5848 5849 5850 5851 5852 5854 5855 5856 5858 5859 5860 5861 5862 5863 5863 5864 5865 5865 5865 5866 5866 5866 5866 5866 5866 5866 5866 5865 5865 5865 5864 5864
5831 5832 5834 5835 5835 5836 5837 5839 5840 5839 5839 5840 5840 5841 5842 5843 5844 5845 5846 5847 5848 5850 5851 5852 5854 5855 5856 5857 5858 5859 5860 5861 5862 5862 5863 5863 5863 5863 5864 5864 5864 5864 5864 5864 5864 5864 5863 5863 5862
5830 5830 5831 5832 5832 5833 5835 5836 5837 5837 5837 5837 5838 5838 5839 5840 5841 5842 5843 5844 5845 5847 5848 5850 5851 5852 5853 5854 5855 5856 5857 5858 5859 5859 5860 5860 5861 5861 5861 5861 5862 5862 5862 5862 5862 5861 5861 5860 5860
5827 5828 5828 5829 5829 5830 5831 5835 5834 5834 5835 5835 5835 5836 5836 5837 5838 5839 5840 5841 5842 5844 5845 5846 5848 5849 5850 5851 5852 5853 5854 5855 5856 5857 5857 5857 5858 5858 5858 5859 5859 5859 5860 5859 5859 5859 5858 5858 5857
5823 5824 5825 5827 5827 5827 5828 5833 5830 5831 5831 5832 5833 5833 5833 5834 5835 5836 5837 5838 5839 5840 5842 5843 5844 5846 5847 5848 5849 5850 5851 5852 5853 5854 5854 5855 5855 5855 5856 5856 5856 5856 5856 5856 5856 5856 5856 5855 5855